Date String (YYYY-MM-DD hh:mm:ss) UTC,Instrument flags,Ambient pressure (hPa),Sample flow (lpm),Bypass flow (lpm),Sample temperature (°C),Ambient temperature (°C),ASC tube jacket temperature (°C),LED temperature (°C),Box temperature (°C),Sample RH (%),Span deviation,Mass concentration (μg/m³),Mass concentration (μg/m³),Mass concentration (μg/m³)
DateTimeUTC,F1_M11,P_M11,Q1_M11,Q2_M11,T1_M11,T2_M11,T3_M11,T4_M11,T5_M11,U1_M11,ZSPAN_M11,X0_M11,X2_M11,X1_M11
2022-12-04 09:00:00,,0829.2,5.00,0.00,22.1,20.7,00.0,31.0,23.8,14.2,0000.0,0014.38,0004.05,0003.01
2022-12-04 09:01:00,,0829.3,4.99,0.00,22.1,20.6,00.0,31.0,23.8,14.2,0000.0,0013.16,0003.92,0002.87
2022-12-04 09:02:00,,0829.3,4.99,0.00,22.0,20.6,00.0,31.0,23.8,14.4,0000.0,0013.47,0003.83,0002.79
2022-12-04 09:03:00,,0829.4,5.00,0.00,22.0,20.6,00.0,31.0,23.8,14.6,0000.0,0012.57,0003.68,0002.74
2022-12-04 09:04:00,,0829.4,5.00,0.00,22.0,20.6,00.0,31.0,23.7,14.7,0000.0,0011.49,0003.60,0002.69
2022-12-04 09:05:00,,0829.4,5.00,0.00,22.0,20.6,00.0,31.0,23.7,14.9,0000.0,0012.11,0003.60,0002.67
2022-12-04 09:06:00,,0829.3,5.00,0.00,22.0,20.6,00.0,31.0,23.8,15.1,0000.0,0012.48,0003.60,0002.68
2022-12-04 09:07:00,,0829.3,5.00,0.00,22.0,20.4,00.0,31.0,23.8,14.8,0000.0,0013.74,0003.81,0002.82
2022-12-04 09:08:00,,0829.3,4.99,0.00,21.9,20.2,00.0,31.0,23.6,14.6,0000.0,0013.63,0004.13,0003.05
2022-12-04 09:09:00,,0829.3,5.00,0.00,21.9,20.1,00.0,31.0,23.6,14.2,0000.0,0013.99,0004.37,0003.22
2022-12-04 09:10:00,,0829.4,5.01,0.00,21.9,20.7,00.0,30.9,23.7,14.3,0000.0,0015.70,0004.64,0003.36
2022-12-04 09:11:00,,0829.4,5.01,0.00,22.0,21.7,00.0,30.8,24.0,14.3,0000.0,0015.82,0004.83,0003.46
2022-12-04 09:12:00,,0829.3,4.98,0.00,22.1,21.8,00.0,30.9,24.0,14.3,0000.0,0016.85,0005.01,0003.57
2022-12-04 09:13:00,,0829.2,4.99,0.00,22.1,21.3,00.0,30.9,24.0,14.3,0000.0,0018.38,0005.29,0003.68
2022-12-04 09:14:00,,0829.2,5.01,0.00,22.0,21.0,00.0,31.0,23.9,14.2,0000.0,0020.34,0005.62,0003.79
2022-12-04 09:15:00,,0829.3,5.00,0.00,22.0,20.7,00.0,31.0,23.8,14.1,0000.0,0022.15,0005.89,0003.91
2022-12-04 09:16:00,,0829.2,5.00,0.00,22.0,20.4,00.0,31.0,23.7,14.1,0000.0,0022.14,0006.08,0004.04
2022-12-04 09:17:00,,0829.2,4.99,0.00,21.9,20.2,00.0,31.0,23.7,14.1,0000.0,0022.15,0006.30,0004.16
2022-12-04 09:18:00,,0829.3,5.01,0.00,21.9,20.1,00.0,30.9,23.6,14.2,0000.0,0021.35,0006.30,0004.19
2022-12-04 09:19:00,,0829.3,5.01,0.00,21.8,20.0,00.0,30.9,23.5,14.2,0000.0,0021.64,0006.16,0004.18
2022-12-04 09:20:00,,0829.2,5.00,0.00,21.8,19.9,00.0,30.9,23.5,14.2,0000.0,0022.38,0006.12,0004.14
2022-12-04 09:21:00,,0829.2,4.99,0.00,21.8,19.8,00.0,30.9,23.4,14.2,0000.0,0022.08,0006.07,0004.10
2022-12-04 09:22:00,,0829.3,5.00,0.00,21.7,19.8,00.0,30.8,23.4,14.3,0000.0,0021.74,0006.05,0004.10
2022-12-04 09:23:00,,0829.2,5.01,0.00,21.7,19.9,00.0,30.8,23.4,14.3,0000.0,0020.38,0005.99,0004.08
2022-12-04 09:24:00,,0829.3,5.00,0.00,21.7,20.0,00.0,30.8,23.4,14.3,0000.0,0019.26,0005.90,0004.07
2022-12-04 09:25:00,,0829.3,4.99,0.00,21.7,20.1,00.0,30.8,23.5,14.3,0000.0,0017.62,0005.73,0004.03
2022-12-04 09:26:00,,0829.3,5.00,0.00,21.7,20.2,00.0,30.8,23.5,14.3,0000.0,0016.15,0005.57,0003.99
2022-12-04 09:27:00,,0829.3,5.00,0.00,21.7,20.3,00.0,30.8,23.5,14.4,0000.0,0015.61,0005.47,0003.93
2022-12-04 09:28:00,,0829.2,5.00,0.00,21.7,20.3,00.0,30.7,23.5,14.6,0000.0,0014.95,0005.31,0003.87
2022-12-04 09:29:00,,0829.2,4.99,0.00,21.7,20.4,00.0,30.7,23.6,14.7,0000.0,0014.63,0005.13,0003.78
2022-12-04 09:30:00,,0829.2,5.00,0.00,21.7,20.4,00.0,30.7,23.6,14.8,0000.0,0014.59,0004.96,0003.68
2022-12-04 09:31:00,,0829.3,5.00,0.00,21.7,20.5,00.0,30.7,23.6,14.9,0000.0,0013.29,0004.71,0003.57
2022-12-04 09:32:00,,0829.3,5.00,0.00,21.7,20.5,00.0,30.7,23.6,14.8,0000.0,0011.69,0004.48,0003.47
2022-12-04 09:33:00,,0829.3,5.00,0.00,21.7,20.4,00.0,30.7,23.5,14.7,0000.0,0011.05,0004.33,0003.37
2022-12-04 09:34:00,,0829.3,5.00,0.00,21.7,20.3,00.0,30.7,23.5,14.5,0000.0,0010.78,0004.25,0003.32
2022-12-04 09:35:00,,0829.3,5.00,0.00,21.7,20.2,00.0,30.7,23.5,14.6,0000.0,0010.99,0004.17,0003.26
2022-12-04 09:36:00,,0829.3,5.00,0.00,21.7,20.1,00.0,30.7,23.5,14.5,0000.0,0010.99,0004.10,0003.22
2022-12-04 09:37:00,,0829.4,5.02,0.00,21.7,20.6,00.0,30.6,23.6,14.4,0000.0,0011.69,0004.10,0003.21
2022-12-04 09:38:00,,0829.3,5.00,0.00,21.8,21.7,00.0,30.6,23.8,14.2,0000.0,0012.03,0004.11,0003.20
2022-12-04 09:39:00,,0829.3,4.99,0.00,21.9,22.0,00.0,30.6,23.9,14.2,0000.0,0012.15,0004.14,0003.22
2022-12-04 09:40:00,,0829.3,4.99,0.00,21.9,21.5,00.0,30.7,23.9,14.1,0000.0,0012.63,0004.23,0003.27
2022-12-04 09:41:00,,0829.4,5.01,0.00,21.9,21.1,00.0,30.7,23.8,14.1,0000.0,0013.73,0004.35,0003.32
2022-12-04 09:42:00,,0829.4,5.00,0.00,21.9,20.8,00.0,30.8,23.7,14.1,0000.0,0014.13,0004.47,0003.39
2022-12-04 09:43:00,,0829.2,5.00,0.00,21.8,20.6,00.0,30.8,23.7,14.1,0000.0,0014.36,0004.59,0003.45
2022-12-04 09:44:00,,0829.2,5.00,0.00,21.8,20.5,00.0,30.8,23.6,14.2,0000.0,0014.65,0004.60,0003.50
2022-12-04 09:45:00,,0829.2,5.00,0.00,21.8,20.4,00.0,30.8,23.6,14.2,0000.0,0015.13,0004.63,0003.52
2022-12-04 09:46:00,,0829.1,5.00,0.00,21.8,20.3,00.0,30.8,23.6,14.2,0000.0,0014.58,0004.59,0003.52
2022-12-04 09:47:00,,0829.1,5.00,0.00,21.8,20.4,00.0,30.8,23.6,14.2,0000.0,0014.03,0004.55,0003.51
2022-12-04 09:48:00,,0829.2,5.00,0.00,21.8,20.4,00.0,30.8,23.6,14.2,0000.0,0013.16,0004.48,0003.49
2022-12-04 09:49:00,,0829.3,5.00,0.00,21.8,20.3,00.0,30.8,23.6,14.2,0000.0,0012.64,0004.45,0003.49
2022-12-04 09:50:00,,0829.3,4.99,0.00,21.8,20.2,00.0,30.8,23.6,14.3,0000.0,0012.82,0004.46,0003.48
2022-12-04 09:51:00,,0829.3,4.99,0.00,21.8,20.1,00.0,30.8,23.5,14.3,0000.0,0012.29,0004.46,0003.48
2022-12-04 09:52:00,,0829.3,4.99,0.00,21.7,20.1,00.0,30.7,23.5,14.4,0000.0,0010.81,0004.44,0003.47
2022-12-04 09:53:00,,0829.4,5.01,0.00,21.7,20.0,00.0,30.7,23.5,14.4,0000.0,0010.30,0004.51,0003.50
2022-12-04 09:54:00,,0829.4,5.01,0.00,21.7,19.9,00.0,30.7,23.4,14.3,0000.0,0010.00,0004.52,0003.52
2022-12-04 09:55:00,,0829.4,4.98,0.00,21.6,19.9,00.0,30.7,23.4,14.3,0000.0,0009.69,0004.54,0003.55
2022-12-04 09:56:00,,0829.4,5.00,0.00,21.6,19.9,00.0,30.7,23.4,14.3,0000.0,0009.56,0004.55,0003.58
2022-12-04 09:57:00,,0829.4,5.01,0.00,21.6,20.0,00.0,30.7,23.4,14.2,0000.0,0010.01,0004.63,0003.62
2022-12-04 09:58:00,,0829.3,5.01,0.00,21.6,20.1,00.0,30.7,23.4,14.3,0000.0,0010.36,0004.70,0003.66
2022-12-04 09:59:00,,0829.4,5.00,0.00,21.6,20.2,00.0,30.6,23.5,14.3,0000.0,0010.59,0004.74,0003.71
